Weather reports worldwide

Advertisment
Forli, Italy (16147): temperature & dewpoint: 20.03.2019 20:00:00 - 26.03.2019 20:00:00 (CET)Forli, Italy (16147): wind speed: 20.03.2019 20:00:00 - 26.03.2019 20:00:00 (CET)Forli, Italy (16147): wind direction: 20.03.2019 20:00:00 - 26.03.2019 20:00:00 (CET)Forli, Italy (16147): reduced air pressure: 20.03.2019 20:00:00 - 26.03.2019 20:00:00 (CET)Forli, Italy (16147): visibility: 20.03.2019 20:00:00 - 26.03.2019 20:00:00 (CET)Forli, Italy (16147): precipitation: 20.03.2019 20:00:00 - 26.03.2019 20:00:00 (CET)
Date & Time tt [°C] td [°C] ff [km/h] ff [kn] dd ppp [hPa] vv [km] rr [mm]
26.03.2019 20:00:00 - - - - - - - -
26.03.2019 19:00:00 10,1 1,7 7 4 E 1018,9 - 0,0
26.03.2019 18:00:00 10,9 0,6 8 4 ENE 1018,4 10 0,0
26.03.2019 17:00:00 11,5 -1,6 11 6 NE 1018,1 10 0,0
26.03.2019 16:00:00 11,9 0,0 13 7 ENE 1018,0 10 0,0
26.03.2019 15:00:00 12,1 -2,5 15 8 NE 1017,8 10 0,0
26.03.2019 14:00:00 11,7 -1,1 15 8 NE 1017,9 10 0,0
26.03.2019 13:00:00 10,7 -0,8 18 10 NNE 1018,3 10 0,0
26.03.2019 12:00:00 11,1 -1,7 24 13 NNE 1018,3 10 0,0
26.03.2019 11:00:00 10,6 -0,5 9 5 WNW 1018,2 10 0,0
26.03.2019 10:00:00 8,5 4,1 15 8 NW 1018,1 10 0,0
26.03.2019 09:00:00 6,8 4,3 11 6 NE 1017,8 - 0,0
26.03.2019 08:00:00 6,3 4,0 8 4 ENE 1017,6 - 0,0
26.03.2019 07:00:00 5,9 3,6 5 3 ENE 1017,1 - 0,0
26.03.2019 06:00:00 6,0 3,5 9 5 NE 1016,9 - 0,0
26.03.2019 05:00:00 5,9 3,2 10 5 E 1017,7 - 1,0
26.03.2019 04:00:00 5,4 3,1 14 7 ENE 1017,8 - 2,8
26.03.2019 03:00:00 5,4 3,1 22 12 ENE 1017,9 - 4,2
26.03.2019 02:00:00 5,8 3,5 29 16 NE 1016,8 - 1,6
26.03.2019 01:00:00 7,8 3,8 35 19 NNE 1013,0 - 0,0
26.03.2019 00:00:00 8,6 3,8 32 17 NNE 1011,7 - 0,0
25.03.2019 23:00:00 13,3 5,5 42 23 NNE 1007,1 - 0,0
25.03.2019 22:00:00 15,9 -0,4 16 9 ESE 1004,2 - 0,0
25.03.2019 21:00:00 16,6 0,3 21 12 ESE 1003,5 - 0,0
25.03.2019 20:00:00 17,3 -0,4 11 6 ESE 1003,4 - 0,0
25.03.2019 19:00:00 18,4 -1,5 9 5 SSE 1003,7 - 0,0
25.03.2019 18:00:00 19,8 -0,8 16 9 SSW 1003,9 10 0,0
25.03.2019 17:00:00 21,1 -0,8 16 9 SSW 1004,5 10 0,0
25.03.2019 16:00:00 21,8 -0,9 16 9 SW 1005,1 10 0,0
25.03.2019 15:00:00 22,1 -1,9 24 13 WSW 1005,7 10 0,0
25.03.2019 14:00:00 22,0 -2,0 18 10 W 1006,6 10 0,0
25.03.2019 13:00:00 22,1 -1,9 24 13 W 1007,8 10 0,0
25.03.2019 12:00:00 21,7 -2,9 15 8 W 1008,7 10 0,0
25.03.2019 11:00:00 21,4 -3,2 15 8 SW 1009,4 10 0,0
25.03.2019 10:00:00 20,4 -2,0 9 5 SW 1010,1 10 0,0
25.03.2019 09:00:00 18,1 -0,7 9 5 SW 1010,7 - 0,0
25.03.2019 08:00:00 16,3 -0,4 9 5 SW 1010,9 - 0,0
25.03.2019 07:00:00 14,4 -0,9 11 6 SW 1010,9 - 0,0
25.03.2019 06:00:00 14,2 -1,1 11 6 WSW 1011,2 - 0,0
25.03.2019 05:00:00 14,2 -0,3 13 7 S 1011,3 - 0,0
25.03.2019 04:00:00 13,8 0,4 9 5 SSE 1011,7 - 0,0
25.03.2019 03:00:00 14,5 -0,4 9 5 SSW 1012,3 - 0,0
25.03.2019 02:00:00 13,6 1,3 3 2 SSE 1012,9 - 0,0
25.03.2019 01:00:00 14,4 1,6 - - - 1013,3 - 0,0
25.03.2019 00:00:00 14,9 1,4 1 1 WSW 1013,5 - 0,0
24.03.2019 23:00:00 13,9 3,6 3 1 E 1013,7 - 0,0
24.03.2019 22:00:00 14,8 4,2 5 3 S 1014,2 - 0,0
24.03.2019 21:00:00 15,4 5,3 7 4 S 1014,8 - 0,0
24.03.2019 20:00:00 17,0 5,3 3 2 SSW 1015,2 - 0,0
24.03.2019 19:00:00 18,4 4,9 - - - 1015,0 - 0,0
24.03.2019 18:00:00 20,0 4,5 7 4 ESE 1014,9 - 0,0
24.03.2019 17:00:00 21,2 3,4 13 7 E 1014,9 - 0,0
24.03.2019 16:00:00 22,6 0,4 7 4 ENE 1015,3 - 0,0
24.03.2019 15:00:00 22,3 0,8 4 2 NNW 1016,1 - 0,0
24.03.2019 14:00:00 22,1 1,7 6 4 N 1017,0 - 0,0
24.03.2019 13:00:00 21,4 1,1 3 2 NNE 1018,3 - 0,0
24.03.2019 12:00:00 21,0 1,3 3 2 SW 1019,3 - 0,0
24.03.2019 11:00:00 19,0 2,8 7 4 WNW 1019,9 - 0,0
24.03.2019 10:00:00 17,2 2,4 7 4 WNW 1020,4 - 0,0
24.03.2019 09:00:00 15,7 2,8 3 2 WSW 1020,4 - 0,0
24.03.2019 08:00:00 11,7 1,9 5 3 SSW 1020,5 - 0,0
24.03.2019 07:00:00 9,0 1,2 5 3 SW 1020,6 - 0,0
24.03.2019 06:00:00 8,7 1,1 6 3 SW 1020,5 - 0,0
24.03.2019 05:00:00 9,4 1,3 5 3 SSW 1020,4 - 0,0
24.03.2019 04:00:00 9,7 1,3 10 5 SSW 1020,2 - 0,0
24.03.2019 03:00:00 9,4 2,0 6 3 SSW 1020,6 - 0,0
24.03.2019 02:00:00 9,9 2,3 4 2 SSW 1020,9 - 0,0
24.03.2019 01:00:00 10,1 2,2 10 5 S 1021,1 - 0,0
24.03.2019 00:00:00 10,6 2,9 1 0 SW 1021,3 - 0,0
23.03.2019 23:00:00 11,0 2,8 6 3 S 1021,4 - 0,0
23.03.2019 22:00:00 11,5 3,0 7 4 SW 1021,4 - 0,0
23.03.2019 21:00:00 12,7 3,1 6 3 S 1021,4 - 0,0
23.03.2019 20:00:00 14,5 2,1 4 2 S 1021,0 - 0,0
23.03.2019 19:00:00 16,3 -0,4 4 2 ESE 1020,6 - 0,0
23.03.2019 18:00:00 17,6 -0,2 8 4 E 1020,5 - 0,0
23.03.2019 17:00:00 19,0 0,6 10 5 E 1020,5 - 0,0
23.03.2019 16:00:00 19,9 -0,7 5 3 NNW 1020,7 - 0,0
23.03.2019 15:00:00 19,8 -0,8 10 5 N 1021,1 - 0,0
23.03.2019 14:00:00 19,5 -1,1 5 3 N 1021,6 - 0,0
23.03.2019 13:00:00 19,0 -1,5 3 2 WNW 1022,4 - 0,0
23.03.2019 12:00:00 17,8 -0,5 9 5 NW 1022,9 - 0,0
23.03.2019 11:00:00 16,1 -0,2 12 7 WNW 1023,1 - 0,0
23.03.2019 10:00:00 14,6 0,1 15 8 WNW 1023,6 - 0,0
23.03.2019 09:00:00 13,3 0,3 7 4 WNW 1023,7 - 0,0
23.03.2019 08:00:00 10,3 0,9 4 2 SW 1023,3 - 0,0
23.03.2019 07:00:00 7,5 0,5 7 4 SW 1023,3 - 0,0
23.03.2019 06:00:00 7,2 0,4 8 5 SW 1023,1 - 0,0
23.03.2019 05:00:00 7,1 0,3 9 5 SW 1023,1 - 0,0
23.03.2019 04:00:00 7,3 0,7 7 4 SSW 1023,4 - 0,0
23.03.2019 03:00:00 7,6 0,6 7 4 SW 1023,4 - 0,0
23.03.2019 02:00:00 7,9 1,1 6 4 SSW 1024,0 - 0,0
23.03.2019 01:00:00 8,0 1,2 5 3 SW 1024,4 - 0,0
23.03.2019 00:00:00 8,7 1,6 4 2 SSW 1024,4 - 0,0
22.03.2019 23:00:00 9,2 1,6 5 3 SSW 1024,6 - 0,0
22.03.2019 22:00:00 9,7 1,8 4 2 S 1025,0 - 0,0
22.03.2019 21:00:00 10,3 2,6 7 4 SW 1024,8 - 0,0
22.03.2019 20:00:00 13,1 1,4 4 2 SW 1024,9 - 0,0
22.03.2019 19:00:00 13,9 1,5 5 3 ESE 1024,7 - 0,0
22.03.2019 18:00:00 15,4 2,5 2 1 - 1024,5 10 0,0
22.03.2019 17:00:00 17,1 -1,6 4 2 - 1024,4 10 0,0
22.03.2019 16:00:00 17,4 -0,4 5 3 - 1025,1 10 0,0
22.03.2019 15:00:00 16,5 -0,3 8 4 N 1025,8 10 0,0
22.03.2019 14:00:00 16,3 -0,4 4 2 - 1026,4 10 0,0
22.03.2019 13:00:00 15,3 -0,9 9 5 NNW 1027,5 10 0,0
22.03.2019 12:00:00 14,5 -0,8 5 3 - 1027,9 10 0,0
22.03.2019 11:00:00 13,1 -2,0 15 8 NNW 1028,3 10 0,0
22.03.2019 10:00:00 11,9 -1,3 9 5 NW 1028,6 10 0,0
22.03.2019 09:00:00 10,7 -0,8 8 5 WNW 1028,7 - 0,0
22.03.2019 08:00:00 8,2 -0,6 3 2 WSW 1028,6 - 0,0
22.03.2019 07:00:00 5,5 -0,6 5 3 SW 1028,0 - 0,0
22.03.2019 06:00:00 5,3 -1,0 7 4 WSW 1027,8 - 0,0
22.03.2019 05:00:00 5,6 -0,7 6 4 SSW 1027,6 - 0,0
22.03.2019 04:00:00 5,8 -0,5 4 2 SSW 1027,8 - 0,0
22.03.2019 03:00:00 5,8 -0,5 6 4 SW 1028,0 - 0,0
22.03.2019 02:00:00 6,0 -0,3 7 4 WSW 1028,4 - 0,0
22.03.2019 01:00:00 6,3 0,2 8 4 WSW 1028,6 - 0,0
22.03.2019 00:00:00 6,9 0,8 8 4 WSW 1028,6 - 0,0
21.03.2019 23:00:00 7,2 1,1 10 5 WSW 1028,6 - 0,0
21.03.2019 22:00:00 8,1 1,5 6 3 SW 1028,4 - 0,0
21.03.2019 21:00:00 9,0 1,9 4 2 SW 1028,2 - 0,0
21.03.2019 20:00:00 10,7 0,7 4 2 SW 1027,9 - 0,0
21.03.2019 19:00:00 12,4 -1,2 3 2 SSE 1027,4 - 0,0
21.03.2019 18:00:00 13,4 -1,8 4 2 - 1027,2 10 0,0
21.03.2019 17:00:00 14,0 -1,6 2 1 - 1027,2 10 0,0
21.03.2019 16:00:00 13,9 -1,3 4 2 - 1027,7 10 0,0
21.03.2019 15:00:00 14,1 -0,8 9 5 NNE 1028,4 10 0,0
21.03.2019 14:00:00 13,4 -1,4 9 5 NW 1029,0 10 0,0
21.03.2019 13:00:00 12,5 -1,4 11 6 NW 1029,8 10 0,0
21.03.2019 12:00:00 11,7 -1,1 8 4 NW 1030,4 10 0,0
21.03.2019 11:00:00 10,5 0,2 13 7 NW 1030,4 10 0,0
21.03.2019 10:00:00 9,0 0,2 9 5 NW 1030,7 10 0,0
21.03.2019 09:00:00 7,3 0,0 11 6 WNW 1030,5 - 0,0
21.03.2019 08:00:00 5,3 -0,1 11 6 WNW 1030,3 - 0,0
21.03.2019 07:00:00 3,3 -0,5 7 4 W 1029,9 - 0,0
21.03.2019 06:00:00 3,2 -0,6 7 4 W 1029,3 - 0,0
21.03.2019 05:00:00 3,3 -0,7 7 4 WSW 1028,8 - 0,0
21.03.2019 04:00:00 3,3 -0,7 6 3 WSW 1028,7 - 0,0
21.03.2019 03:00:00 3,2 -1,2 9 5 WSW 1028,7 - 0,0
21.03.2019 02:00:00 3,7 -1,5 8 5 WSW 1029,1 - 0,0
21.03.2019 01:00:00 4,7 -1,3 4 2 W 1029,2 - 0,0
21.03.2019 00:00:00 4,3 -1,7 6 3 WSW 1028,7 - 0,0
20.03.2019 23:00:00 5,6 -1,6 7 4 W 1028,5 - 0,0
20.03.2019 22:00:00 5,5 -1,4 8 4 WSW 1028,2 - 0,0
20.03.2019 21:00:00 6,2 -1,5 8 4 WSW 1027,9 - 0,0
20.03.2019 20:00:00 8,2 -2,2 5 3 W 1027,7 - 0,0

tt = temperature
td = dewpoint
ff = wind speed
dd = wind direction
ppp = reduced air pressure
vv = visibility
rr = precipitation

Next stations